This demonstration page uses our WeatherBlox Daily Observations layout. Learn more.

Left ArrowRight Arrow

41.12389, -100.76542

Hourly Observations for July 17, 2022

Temp ( °F °C ) Dew Point ( °F °C ) Humidity (%) Winds ( mph kmh ) Pressure ( in mb ) Visibility ( mi km ) Precip ( " mm )
12:53 am 00:53 Clear 68 20 63 17.2 84 84 Calm 29.93 1013 10 16 0.00 0.00
1:53 am 01:53 Clear 65 18.3 62 16.7 90 90 NNW 3 6 29.93 1013 10 16 0.00 0.00
2:38 am 02:38 Partly Cloudy 65 18.3 61 16.1 87 87 Calm 29.92 1013 10 16 0.00 0.00
2:53 am 02:53 Mostly Cloudy 67 19.4 63 17.2 87 87 N 3 6 29.92 1013 10 16 0.00 0.00
3:01 am 03:01 Cloudy with Mist and Fog 67 19.4 64 17.8 91 91 N 6 9 29.91 1013 5 8 0.00 0.00
3:12 am 03:12 Cloudy with Mist and Fog 67 19.4 65 18.3 93 93 NW 5 7 29.91 1013 2 3 0.00 0.00
3:30 am 03:30 Mostly Cloudy with Mist and Fog 67 19.4 65 18.3 93 93 Calm 29.91 1013 1 2 0.00 0.00
3:53 am 03:53 Mostly Cloudy with Mist and Fog 67 19.4 66 18.9 97 97 Calm 29.92 1013 1 1 0.00 0.00
4:08 am 04:08 Cloudy with Mist and Fog 68 20 66 18.9 93 93 N 6 9 29.91 1013 1 2 0.00 0.00
4:13 am 04:13 Cloudy with Mist and Fog 68 20 66 18.9 93 93 NNE 3 6 29.92 1013 2 3 0.00 0.00
4:34 am 04:34 Cloudy with Mist and Fog 68 20 67 19.4 96 96 N 3 6 29.91 1013 3 5 0.00 0.00
4:53 am 04:53 Cloudy with Mist and Fog 69 20.6 67 19.4 93 93 NNW 6 9 29.92 1013 3 5 0.00 0.00
5:51 am 05:51 Cloudy 70 21 66 19 88 88 Calm 29.92 1013 10 16 0.00 0.00
5:53 am 05:53 Cloudy 70 21.1 66 18.9 87 87 Calm 29.94 1014 10 16 0.00 0.00
6:53 am 06:53 Cloudy 70 21.1 67 19.4 90 90 Calm 29.95 1014 10 16 0.00 0.00
7:53 am 07:53 Cloudy 70 21.1 67 19.4 90 90 N 7 11 29.96 1015 10 16 0.00 0.00
8:53 am 08:53 Cloudy 72 22.2 67 19.4 84 84 N 6 9 29.98 1015 10 16 0.00 0.00
9:51 am 09:51 Mostly Cloudy 75 24 66 19 74 74 NNW 7 11 29.92 1013 10 16 0.00 0.00
9:53 am 09:53 Mostly Cloudy 76 24.4 67 19.4 74 74 NNW 7 11 29.99 1016 10 16 0.00 0.00
10:00 am 10:00 Partly Cloudy 77 25 67 19.4 71 71 Calm 29.91 1013 10 16 0.00 0.00
10:53 am 10:53 Sunny 82 27.8 67 19.4 60 60 VRB 5 7 29.98 1015 10 16 0.00 0.00
11:53 am 11:53 Sunny 87 30.6 65 18.3 48 48 ENE 5 7 29.96 1015 10 16 0.00 0.00
12:53 pm 12:53 Sunny 91 32.8 64 17.8 41 41 Calm 29.95 1014 10 16 0.00 0.00
1:53 pm 13:53 Sunny 95 35 53 11.7 24 24 NE 6 9 29.93 1014 10 16 0.00 0.00
2:53 pm 14:53 Sunny 97 36.1 53 11.7 23 23 undefined N/A 29.92 1013 10 16 0.00 0.00
3:53 pm 15:53 Sunny 96 35.6 64 17.8 35 35 ESE 12 19 29.92 1013 10 16 0.00 0.00
4:53 pm 16:53 Sunny 95 35 63 17.2 35 35 SE 13 20 29.91 1013 10 16 0.00 0.00
5:53 pm 17:53 Sunny 94 34.4 63 17.2 36 36 ESE 13 20 29.91 1013 10 16 0.00 0.00
6:53 pm 18:53 Sunny 92 33.3 62 16.7 37 37 ESE 14 22 29.91 1013 10 16 0.00 0.00
7:53 pm 19:53 Sunny 89 31.7 63 17.2 42 42 SE 9 15 29.90 1013 10 16 0.00 0.00
8:53 pm 20:53 Sunny 82 27.8 64 17.8 55 55 ESE 9 15 29.91 1013 10 16 0.00 0.00
9:53 pm 21:53 Clear 74 23.3 65 18.3 74 74 E 7 11 29.93 1013 10 16 0.00 0.00
10:53 pm 22:53 Clear 74 23.3 65 18.3 74 74 ESE 8 13 29.94 1014 10 16 0.00 0.00
11:53 pm 23:53 Clear 77 25 67 19.4 71 71 SSE 7 11 29.94 1014 10 16 0.00 0.00

Powered by AerisWeather